星链-4314 (STARLINK-4314 )

导读

STARLINK-4314是美国SpaceX公司星链星座中的一颗V1.5低轨通信卫星,于2022年7月11日发射入轨。作为星链网络的组成部分,它配备激光星间链路,可实现卫星间直接通信,提升全球网络覆盖效率,为全球用户提供高速宽带互联网服务,增强了星座在偏远地区和海洋的通信能力,助力构建全球低轨卫星通信系统。

Basic Information
目录编号:
53056
目录名称:
STARLINK-4314
国际标识:
2022-077P
轨道中心:
EARTH
卫星名称:
星链-4314
卫星全名:
星链-4314 (STARLINK-4314 )
卫星状态:
在轨 (已飞行1516 天)
发射日期:
2022-07-11 UTC
国别 :
美国 (US)
星等 :
--
Orbit Information
数据来源 国际轨道数据
星历时间: 2026-09-04T16:00:02+0800
9小时前
查看轨道信息
半长轴: 6864.725km
偏心率: 0.0001851
轨道倾角: 97.286°
近地点辐角 55.932°
升交点赤经 63.372°
平近点角 90.477°
近地点: 485.317km
远地点: 487.859km
周期: 94.340分钟
每日圈数: 15.263992
Detailed Information
固有亮度:
5
最大亮度:
2.5
卫星平台:
Starlink v1.5
覆盖范围:
全球
运营商:
太空探索技术公司
运营商所在国:
美国
制造商(研发单位):
太空探索技术公司
制造商所在国:
美国
使用方式:
暂无
Satellite Introduction
星链(Starlink)计划是由太空探索技术公司(SpaceX)提出的一个巨型低轨卫星互联网星座项目,计划在2019年至2024年间在太空搭建由约1.2万颗卫星组成的“星链”网络,其中1584颗将部署在地球上空550千米处的近地轨道,并从2020年开始工作。该卫星仍在工作。
2D Orbit Map
3D Orbit Map
Orbit Altitude Analysis Chart
Orbit Inclination Analysis Chart
Orbit Comprehensive Analysis Chart
View Comprehensive Chart
Conjunction Data List
Event ID Objects TCA Miss Dist (km) Collision Risk Probability Collision Risk Index (CRI) Action
CDM_260905-120605-305606-726521
OBJECT T (67265)
2026-09-05T
12:06:26+0000
0.910 km
远距离
3.197776E-5 中风险 0.65
CDM_260906-120905-305605-992521
2026-09-06T
12:09:21+0000
0.992 km
远距离
1.817365E-5 中风险 0.6
CDM_260906-033205-305605-909221
2026-09-06T
03:32:49+0000
1.805 km
极远距离
2.731975E-6 低风险 0.44
CDM_260905-051305-305606-096521
2026-09-05T
05:13:10+0000
2.548 km
极远距离
1.728766E-6 低风险 0.4
CDM_260905-231905-305605-613321
2026-09-05T
23:19:32+0000
2.726 km
极远距离
1.46214E-6 低风险 0.38
CDM_260905-070805-305605-787021
2026-09-05T
07:08:14+0000
2.733 km
极远距离
1.224494E-6 低风险 0.37
CDM_260906-002605-305606-191421
2026-09-06T
00:26:10+0000
2.865 km
极远距离
1.183667E-6 低风险 0.36
CDM_260906-125705-305605-536921
2026-09-06T
12:57:35+0000
2.982 km
极远距离
9.847385E-7 极低风险 0.35